When you browse on this site, cookies collect data to enhance your experience and personalize the content and advertising you see.
Visit our Privacy Policy to learn more. By continuing to use the site, you agree to this use of cookies and data.
  • en Suisse
  • Liste des pays
  • À 7 jours
  • Température de l'eau
  • Carte satellitaire
  • Carte météo
  • Widgets météo
  • user-avatar
    Se connecter

    Météo par heure à Bedford

    Ce jour, 21 Janvier, Lundi

    Heure Température Précipitation Vent Pression Humidité
    00:00 +1°C° 0 mm 1 m/s 765 mmHg 93%
    01:00 +1°C° 0 mm 1 m/s 765 mmHg 94%
    02:00 +1°C° 0 mm 1 m/s 765 mmHg 95%
    03:00 -1°C° 0 mm 2 m/s 765 mmHg 95%
    04:00 +1°C° 0 mm 1 m/s 765 mmHg 95%
    05:00 +1°C° 0 mm 1 m/s 764 mmHg 95%
    06:00 +1°C° 0 mm 1 m/s 764 mmHg 95%
    07:00 +1°C° 0 mm 1 m/s 764 mmHg 95%
    08:00 +1°C° 0 mm 1 m/s 764 mmHg 95%
    09:00 +2°C° 0 mm 1 m/s 764 mmHg 94%
    10:00 +3°C° 0 mm 1 m/s 764 mmHg 90%
    11:00 +3°C° 0 mm 2 m/s 763 mmHg 85%
    12:00 +4°C° 0 mm 2 m/s 763 mmHg 80%
    13:00 +3°C° 0 mm 3 m/s 762 mmHg 81%
    14:00 +3°C° 0 mm 3 m/s 761 mmHg 82%
    15:00 +4°C° 0 mm 3 m/s 760 mmHg 84%
    16:00 +3°C° 0 mm 4 m/s 760 mmHg 87%
    17:00 +1°C° 0 mm 4 m/s 759 mmHg 90%
    18:00 +1°C° 0 mm 5 m/s 758 mmHg 93%
    19:00 +1°C° 0 mm 6 m/s 757 mmHg 92%
    20:00 +2°C° 0 mm 6 m/s 755 mmHg 90%
    21:00 +2°C° 0 mm 7 m/s 754 mmHg 89%
    22:00 +3°C° 0.6 mm 7 m/s 753 mmHg 89%
    23:00 +3°C° 0.6 mm 7 m/s 752 mmHg 90%

    Demain, 22 Janvier, Mardi

    Heure Température Précipitation Vent Pression Humidité
    00:00 +2°C° 0.6 mm 8 m/s 750 mmHg 90%
    01:00 +2°C° 0.8 mm 7 m/s 749 mmHg 87%
    02:00 +2°C° 0.8 mm 6 m/s 749 mmHg 84%
    03:00 +1°C° 0.8 mm 5 m/s 748 mmHg 81%
    04:00 0°C° 0 mm 5 m/s 748 mmHg 82%
    05:00 -1°C° 0 mm 5 m/s 748 mmHg 84%
    06:00 -1°C° 0 mm 5 m/s 747 mmHg 85%
    07:00 -1°C° 0 mm 5 m/s 747 mmHg 85%
    08:00 -1°C° 0 mm 5 m/s 748 mmHg 85%
    09:00 -2°C° 0 mm 4 m/s 748 mmHg 85%
    10:00 -1°C° 0 mm 5 m/s 747 mmHg 80%
    11:00 +1°C° 0 mm 5 m/s 747 mmHg 76%
    12:00 +2°C° 0 mm 6 m/s 747 mmHg 72%
    13:00 +1°C° 0.2 mm 5 m/s 747 mmHg 73%
    14:00 +1°C° 0.2 mm 5 m/s 747 mmHg 74%
    15:00 +1°C° 0.2 mm 5 m/s 747 mmHg 75%
    16:00 0°C° 0 mm 4 m/s 747 mmHg 78%
    17:00 -1°C° 0 mm 4 m/s 747 mmHg 80%
    18:00 -2°C° 0 mm 4 m/s 747 mmHg 83%
    19:00 -3°C° 0 mm 4 m/s 747 mmHg 84%
    20:00 -3°C° 0 mm 4 m/s 747 mmHg 85%
    21:00 -3°C° 0 mm 4 m/s 748 mmHg 86%
    22:00 -2°C° 0 mm 3 m/s 748 mmHg 87%
    23:00 -2°C° 0 mm 3 m/s 748 mmHg 87%

    Après-demain, 23 Janvier, Mercredi

    Heure Température Précipitation Vent Pression Humidité
    00:00 -4°C° 0 mm 3 m/s 748 mmHg 88%
    01:00 -4°C° 0 mm 3 m/s 748 mmHg 88%
    02:00 -4°C° 0 mm 3 m/s 748 mmHg 88%
    03:00 -4°C° 0 mm 3 m/s 749 mmHg 88%
    04:00 -4°C° 0 mm 3 m/s 749 mmHg 88%
    05:00 -4°C° 0 mm 3 m/s 749 mmHg 88%
    06:00 -4°C° 0 mm 3 m/s 749 mmHg 89%
    07:00 -2°C° 0 mm 3 m/s 750 mmHg 87%
    08:00 -2°C° 0 mm 3 m/s 750 mmHg 86%
    09:00 -2°C° 0 mm 2 m/s 751 mmHg 85%
    10:00 -1°C° 0 mm 3 m/s 751 mmHg 78%
    11:00 +1°C° 0 mm 3 m/s 752 mmHg 72%
    12:00 +2°C° 0 mm 3 m/s 752 mmHg 65%
    13:00 +2°C° 0 mm 3 m/s 753 mmHg 66%
    14:00 +2°C° 0 mm 3 m/s 753 mmHg 67%
    15:00 +3°C° 0 mm 2 m/s 753 mmHg 68%
    16:00 +2°C° 0 mm 2 m/s 754 mmHg 72%
    17:00 +1°C° 0 mm 2 m/s 754 mmHg 77%
    18:00 -1°C° 0 mm 2 m/s 755 mmHg 81%
    19:00 -1°C° 0 mm 2 m/s 755 mmHg 83%
    20:00 -1°C° 0 mm 2 m/s 756 mmHg 84%
    21:00 -2°C° 0 mm 2 m/s 756 mmHg 85%
    22:00 -2°C° 0 mm 2 m/s 757 mmHg 86%
    23:00 -2°C° 0 mm 2 m/s 757 mmHg 87%

    24 Janvier, Jeudi

    Heure Température Précipitation Vent Pression Humidité
    00:00 -2°C° 0 mm 2 m/s 757 mmHg 88%
    01:00 -1°C° 0 mm 2 m/s 757 mmHg 89%
    02:00 -1°C° 0 mm 2 m/s 757 mmHg 90%
    03:00 -1°C° 0 mm 2 m/s 757 mmHg 92%
    04:00 -1°C° 0 mm 2 m/s 757 mmHg 89%
    05:00 0°C° 0 mm 3 m/s 757 mmHg 86%
    06:00 0°C° 0 mm 3 m/s 757 mmHg 83%
    07:00 +1°C° 0.2 mm 3 m/s 757 mmHg 85%
    08:00 +1°C° 0.2 mm 3 m/s 757 mmHg 87%
    09:00 0°C° 0.2 mm 4 m/s 757 mmHg 89%
    10:00 +1°C° 0.4 mm 4 m/s 756 mmHg 90%
    11:00 +1°C° 0.4 mm 4 m/s 756 mmHg 91%
    12:00 +1°C° 0.4 mm 5 m/s 756 mmHg 92%
    13:00 +3°C° 0.4 mm 4 m/s 756 mmHg 94%
    14:00 +3°C° 0.4 mm 4 m/s 755 mmHg 95%
    15:00 +4°C° 0.4 mm 4 m/s 755 mmHg 97%
    16:00 +4°C° 0.3 mm 3 m/s 755 mmHg 97%
    17:00 +5°C° 0.3 mm 3 m/s 755 mmHg 97%
    18:00 +5°C° 0.3 mm 3 m/s 755 mmHg 97%
    19:00 +5°C° 0.1 mm 4 m/s 756 mmHg 96%
    20:00 +6°C° 0.1 mm 4 m/s 756 mmHg 95%
    21:00 +6°C° 0.1 mm 5 m/s 756 mmHg 94%
    22:00 +6°C° 0 mm 5 m/s 756 mmHg 94%
    23:00 +6°C° 0 mm 5 m/s 756 mmHg 95%

    25 Janvier, Vendredi

    Heure Température Précipitation Vent Pression Humidité
    00:00 +5°C° 0 mm 5 m/s 757 mmHg 95%
    01:00 +5°C° 0 mm 5 m/s 757 mmHg 95%
    02:00 +5°C° 0 mm 5 m/s 757 mmHg 95%
    03:00 +5°C° 0 mm 5 m/s 757 mmHg 96%
    04:00 +5°C° 0 mm 5 m/s 757 mmHg 96%
    05:00 +5°C° 0 mm 5 m/s 757 mmHg 95%
    06:00 +5°C° 0 mm 5 m/s 758 mmHg 95%
    07:00 +5°C° 0 mm 5 m/s 758 mmHg 95%
    08:00 +5°C° 0 mm 5 m/s 758 mmHg 95%
    09:00 +5°C° 0 mm 5 m/s 759 mmHg 95%
    10:00 +6°C° 0 mm 5 m/s 759 mmHg 93%
    11:00 +7°C° 0 mm 5 m/s 759 mmHg 91%
    12:00 +8°C° 0 mm 5 m/s 759 mmHg 89%
    13:00 +8°C° 0 mm 4 m/s 759 mmHg 89%
    14:00 +8°C° 0 mm 4 m/s 758 mmHg 89%
    15:00 +9°C° 0 mm 3 m/s 758 mmHg 89%
    16:00 +7°C° 0 mm 4 m/s 758 mmHg 90%
    17:00 +7°C° 0 mm 4 m/s 758 mmHg 91%
    18:00 +6°C° 0 mm 5 m/s 758 mmHg 92%
    19:00 +6°C° 0 mm 5 m/s 758 mmHg 92%
    20:00 +6°C° 0 mm 5 m/s 757 mmHg 93%
    21:00 +6°C° 0 mm 5 m/s 757 mmHg 93%
    22:00 +6°C° 0 mm 5 m/s 757 mmHg 93%
    23:00 +6°C° 0 mm 5 m/s 756 mmHg 94%

    26 Janvier, Samedi

    Heure Température Précipitation Vent Pression Humidité
    00:00 +6°C° 0 mm 5 m/s 756 mmHg 94%
    01:00 +6°C° 0 mm 5 m/s 755 mmHg 94%
    02:00 +7°C° 0 mm 6 m/s 754 mmHg 94%
    03:00 +7°C° 0 mm 6 m/s 753 mmHg 94%
    04:00 +8°C° 0.1 mm 7 m/s 752 mmHg 93%
    05:00 +8°C° 0.1 mm 7 m/s 750 mmHg 92%
    06:00 +7°C° 0.1 mm 8 m/s 749 mmHg 91%
    07:00 +7°C° 0.3 mm 8 m/s 749 mmHg 90%
    08:00 +6°C° 0.3 mm 8 m/s 748 mmHg 89%
    09:00 +6°C° 0.3 mm 8 m/s 747 mmHg 88%
    10:00 +5°C° 1.4 mm 7 m/s 747 mmHg 87%
    11:00 +4°C° 1.4 mm 7 m/s 747 mmHg 85%
    12:00 +3°C° 1.4 mm 7 m/s 747 mmHg 84%
    13:00 +3°C° 0.1 mm 7 m/s 747 mmHg 80%
    14:00 +3°C° 0.1 mm 7 m/s 747 mmHg 76%
    15:00 +3°C° 0.1 mm 7 m/s 748 mmHg 72%
    16:00 +3°C° 0 mm 6 m/s 748 mmHg 74%
    17:00 +2°C° 0 mm 6 m/s 748 mmHg 76%
    18:00 +1°C° 0 mm 6 m/s 749 mmHg 79%
    19:00 +1°C° 0 mm 6 m/s 749 mmHg 79%
    20:00 0°C° 0 mm 7 m/s 749 mmHg 79%
    21:00 0°C° 0 mm 7 m/s 749 mmHg 80%
    22:00 0°C° 0 mm 7 m/s 749 mmHg 81%
    23:00 +1°C° 0 mm 6 m/s 749 mmHg 82%
    Voir plus